Previsão horária em Almoloya del Río

Hoje, 15 Janeiro, Sexta-feira

Tempo Temperatura Precipitação Vento Pressão Humidade
00:00 +10°C° 0 mm 1 m/s 556 mmHg 79%
01:00 +10°C° 0 mm 1 m/s 556 mmHg 79%
02:00 +10°C° 0 mm 1 m/s 556 mmHg 79%
03:00 +10°C° 0 mm 1 m/s 556 mmHg 79%
04:00 +10°C° 0 mm 1 m/s 556 mmHg 79%
05:00 +9°C° 0 mm 1 m/s 556 mmHg 79%
06:00 +10°C° 0 mm 0 m/s 557 mmHg 75%
07:00 +11°C° 0 mm 0 m/s 558 mmHg 72%
08:00 +12°C° 0 mm 0 m/s 559 mmHg 68%
09:00 +14°C° 0 mm 0 m/s 559 mmHg 63%
10:00 +16°C° 0 mm 1 m/s 560 mmHg 57%
11:00 +19°C° 0 mm 1 m/s 560 mmHg 52%
12:00 +19°C° 0.3 mm 1 m/s 559 mmHg 53%
13:00 +18°C° 0.3 mm 1 m/s 558 mmHg 55%
14:00 +17°C° 0.3 mm 2 m/s 558 mmHg 56%
15:00 +16°C° 0.6 mm 1 m/s 557 mmHg 62%
16:00 +15°C° 0.6 mm 1 m/s 557 mmHg 67%
17:00 +14°C° 0.6 mm 1 m/s 556 mmHg 72%
18:00 +13°C° 0.1 mm 1 m/s 557 mmHg 74%
19:00 +12°C° 0.1 mm 1 m/s 557 mmHg 76%
20:00 +11°C° 0.1 mm 1 m/s 557 mmHg 78%
21:00 +11°C° 0 mm 1 m/s 557 mmHg 79%
22:00 +11°C° 0 mm 1 m/s 557 mmHg 79%
23:00 +11°C° 0 mm 1 m/s 557 mmHg 80%

Amanhã, 16 Janeiro, Sábado

Tempo Temperatura Precipitação Vento Pressão Humidade
00:00 +10°C° 0 mm 1 m/s 557 mmHg 80%
01:00 +10°C° 0 mm 1 m/s 556 mmHg 81%
02:00 +10°C° 0 mm 1 m/s 556 mmHg 82%
03:00 +10°C° 0 mm 1 m/s 556 mmHg 82%
04:00 +9°C° 0 mm 1 m/s 556 mmHg 83%
05:00 +8°C° 0 mm 0 m/s 556 mmHg 84%
06:00 +9°C° 0 mm 0 m/s 557 mmHg 81%
07:00 +10°C° 0 mm 0 m/s 558 mmHg 77%
08:00 +11°C° 0 mm 0 m/s 559 mmHg 74%
09:00 +13°C° 0 mm 0 m/s 559 mmHg 67%
10:00 +16°C° 0 mm 1 m/s 560 mmHg 60%
11:00 +19°C° 0 mm 1 m/s 561 mmHg 53%
12:00 +18°C° 0.5 mm 1 m/s 560 mmHg 54%
13:00 +17°C° 0.5 mm 2 m/s 559 mmHg 55%
14:00 +17°C° 0.5 mm 2 m/s 558 mmHg 55%
15:00 +16°C° 0.5 mm 2 m/s 557 mmHg 60%
16:00 +15°C° 0.5 mm 1 m/s 557 mmHg 65%
17:00 +14°C° 0.5 mm 1 m/s 556 mmHg 70%
18:00 +13°C° 0.1 mm 1 m/s 556 mmHg 73%
19:00 +12°C° 0.1 mm 1 m/s 556 mmHg 76%
20:00 +12°C° 0.1 mm 1 m/s 556 mmHg 80%
21:00 +11°C° 0 mm 1 m/s 557 mmHg 79%
22:00 +11°C° 0 mm 1 m/s 557 mmHg 79%
23:00 +11°C° 0 mm 1 m/s 557 mmHg 79%

Depois de amanhã, 17 Janeiro, Domingo

Tempo Temperatura Precipitação Vento Pressão Humidade
00:00 +11°C° 0 mm 1 m/s 556 mmHg 79%
01:00 +11°C° 0 mm 1 m/s 556 mmHg 80%
02:00 +10°C° 0 mm 0 m/s 556 mmHg 80%
03:00 +9°C° 0 mm 0 m/s 556 mmHg 81%
04:00 +10°C° 0 mm 1 m/s 556 mmHg 82%
05:00 +10°C° 0 mm 1 m/s 556 mmHg 83%
06:00 +10°C° 0 mm 0 m/s 557 mmHg 79%
07:00 +11°C° 0 mm 0 m/s 558 mmHg 75%
08:00 +12°C° 0 mm 0 m/s 559 mmHg 70%
09:00 +14°C° 0 mm 0 m/s 559 mmHg 63%
10:00 +16°C° 0 mm 1 m/s 560 mmHg 55%
11:00 +19°C° 0 mm 1 m/s 560 mmHg 47%
12:00 +19°C° 0.3 mm 1 m/s 560 mmHg 47%
13:00 +19°C° 0.3 mm 1 m/s 559 mmHg 47%
14:00 +18°C° 0.3 mm 1 m/s 558 mmHg 47%
15:00 +16°C° 0.4 mm 1 m/s 558 mmHg 53%
16:00 +15°C° 0.4 mm 1 m/s 557 mmHg 59%
17:00 +13°C° 0.4 mm 0 m/s 557 mmHg 65%
18:00 +12°C° 0.1 mm 0 m/s 557 mmHg 67%
19:00 +12°C° 0.1 mm 1 m/s 557 mmHg 70%
20:00 +11°C° 0.1 mm 1 m/s 557 mmHg 73%
21:00 +11°C° 0 mm 1 m/s 557 mmHg 73%
22:00 +10°C° 0 mm 0 m/s 557 mmHg 74%
23:00 +9°C° 0 mm 0 m/s 557 mmHg 74%

18 Janeiro, Segunda-feira

Tempo Temperatura Precipitação Vento Pressão Humidade
00:00 +9°C° 0 mm 0 m/s 556 mmHg 76%
01:00 +9°C° 0 mm 0 m/s 556 mmHg 78%
02:00 +8°C° 0 mm 0 m/s 556 mmHg 79%
03:00 +8°C° 0 mm 0 m/s 556 mmHg 81%
04:00 +8°C° 0 mm 0 m/s 556 mmHg 83%
05:00 +7°C° 0 mm 0 m/s 556 mmHg 85%
06:00 +9°C° 0 mm 0 m/s 557 mmHg 81%
07:00 +10°C° 0 mm 0 m/s 558 mmHg 77%
08:00 +12°C° 0 mm 0 m/s 559 mmHg 73%
09:00 +14°C° 0 mm 1 m/s 559 mmHg 64%
10:00 +16°C° 0 mm 1 m/s 560 mmHg 56%
11:00 +17°C° 0 mm 2 m/s 560 mmHg 47%
12:00 +17°C° 0.1 mm 2 m/s 559 mmHg 47%
13:00 +18°C° 0.1 mm 2 m/s 559 mmHg 47%
14:00 +18°C° 0.1 mm 3 m/s 558 mmHg 47%
15:00 +16°C° 0.3 mm 2 m/s 557 mmHg 55%
16:00 +15°C° 0.3 mm 2 m/s 557 mmHg 62%
17:00 +14°C° 0.3 mm 2 m/s 556 mmHg 70%
18:00 +13°C° 0.1 mm 1 m/s 556 mmHg 73%
19:00 +12°C° 0.1 mm 1 m/s 556 mmHg 77%
20:00 +11°C° 0.1 mm 1 m/s 556 mmHg 81%
21:00 +11°C° 0 mm 1 m/s 556 mmHg 82%
22:00 +10°C° 0 mm 1 m/s 556 mmHg 82%
23:00 +10°C° 0 mm 1 m/s 556 mmHg 83%

19 Janeiro, Terça-feira

Tempo Temperatura Precipitação Vento Pressão Humidade
00:00 +10°C° 0 mm 1 m/s 556 mmHg 83%
01:00 +9°C° 0 mm 1 m/s 556 mmHg 84%
02:00 +9°C° 0 mm 1 m/s 556 mmHg 84%
03:00 +9°C° 0 mm 1 m/s 556 mmHg 84%
04:00 +9°C° 0 mm 1 m/s 556 mmHg 84%
05:00 +9°C° 0 mm 1 m/s 556 mmHg 84%
06:00 +9°C° 0 mm 0 m/s 557 mmHg 80%
07:00 +10°C° 0 mm 0 m/s 558 mmHg 75%
08:00 +12°C° 0 mm 0 m/s 559 mmHg 70%
09:00 +15°C° 0 mm 1 m/s 560 mmHg 62%
10:00 +16°C° 0 mm 1 m/s 561 mmHg 55%
11:00 +19°C° 0 mm 1 m/s 561 mmHg 47%
12:00 +19°C° 0.2 mm 1 m/s 561 mmHg 47%
13:00 +20°C° 0.2 mm 1 m/s 560 mmHg 47%
14:00 +20°C° 0.2 mm 1 m/s 560 mmHg 47%
15:00 +18°C° 0.3 mm 1 m/s 559 mmHg 53%
16:00 +16°C° 0.3 mm 1 m/s 558 mmHg 58%
17:00 +15°C° 0.3 mm 1 m/s 558 mmHg 64%
18:00 +14°C° 0 mm 1 m/s 558 mmHg 67%
19:00 +13°C° 0 mm 1 m/s 558 mmHg 70%
20:00 +12°C° 0 mm 1 m/s 558 mmHg 73%
21:00 +12°C° 0 mm 1 m/s 558 mmHg 73%
22:00 +12°C° 0 mm 1 m/s 558 mmHg 74%
23:00 +11°C° 0 mm 1 m/s 558 mmHg 74%

20 Janeiro, Quarta-feira

Tempo Temperatura Precipitação Vento Pressão Humidade
00:00 +11°C° 0 mm 1 m/s 558 mmHg 75%
01:00 +11°C° 0 mm 1 m/s 558 mmHg 77%
02:00 +11°C° 0 mm 1 m/s 557 mmHg 78%
03:00 +10°C° 0 mm 1 m/s 557 mmHg 80%
04:00 +10°C° 0 mm 1 m/s 557 mmHg 81%
05:00 +10°C° 0 mm 1 m/s 557 mmHg 83%
06:00 +11°C° 0 mm 1 m/s 558 mmHg 80%
07:00 +12°C° 0 mm 1 m/s 559 mmHg 78%
08:00 +13°C° 0 mm 1 m/s 560 mmHg 75%
09:00 +14°C° 0 mm 1 m/s 561 mmHg 68%
10:00 +16°C° 0 mm 1 m/s 561 mmHg 60%
11:00 +18°C° 0 mm 2 m/s 562 mmHg 53%
12:00 +18°C° 0.1 mm 2 m/s 561 mmHg 52%
13:00 +18°C° 0.1 mm 2 m/s 560 mmHg 52%
14:00 +18°C° 0.1 mm 2 m/s 560 mmHg 51%
15:00 +17°C° 0.2 mm 2 m/s 559 mmHg 56%
16:00 +16°C° 0.2 mm 1 m/s 559 mmHg 60%
17:00 +15°C° 0.2 mm 1 m/s 558 mmHg 65%
18:00 +14°C° 0 mm 1 m/s 558 mmHg 69%
19:00 +13°C° 0 mm 1 m/s 558 mmHg 74%
20:00 +12°C° 0 mm 1 m/s 558 mmHg 78%
21:00 +11°C° 0 mm 1 m/s 558 mmHg 79%
22:00 +11°C° 0 mm 1 m/s 558 mmHg 80%
23:00 +11°C° 0 mm 1 m/s 558 mmHg 81%
Mostrar mais

Necessitamos do seu Consentimento

A Meteoprog e os seus Fornecedores de Serviços podem armazenar e aceder a dados pessoais como cookies, identificadores do dispositivo ou outras tecnologias semelhantes existentes no seu dispositivo e processar estes dados para personalizar conteúdos e anúncios, assim como funcionalidades nas redes sociais e análise de tráfego.

  • Armazenar e/ou aceder a informações no seu dispositivo

    Os cookies, identificadores do dispositivo ou outras informações podem ser armazenados ou acedidos no seu dispositivo, para os fins acima indicados.

  • Anúncios e conteúdos personalizados, medição de anúncios e conteúdos, dados sobre o público-alvo e desenvolvimento de produtos

    Os anúncios e os conteúdos podem ser personalizados com base num perfil. Podem ser adicionados dados adicionais para uma maior personalização dos anúncios e dos conteúdos. A eficácia dos anúncios e dos conteúdos pode ser medida. Podem ser obtidas informações sobre o público que visualizou os anúncios e os conteúdos. Estes dados podem ser usados para desenvolver ou melhorar sistemas, softwares ou a experiência do utilizador.

Ao clicar em "Eu concordo”, permitirá o uso de cookies, identificadores do dispositivo e web beacons mencionados ou outras tecnologias semelhantes. As configurações do navegador do seu dispositivo podem ser alteradas.

Para certos fins, podem ser invocados interesses legítimos ao invés de consentimento. Pode ler mais informação sobre este assunto na nossa Política de Privacidade e Cookies.